Regional Weather Roundup
Issued by NWS San Diego, CA

Home | Current Version | Previous Version | Text Only | Print | Product List | Glossary On
Versions: 1 2 3 4 5 6 7 8 9 10 11 12 13 14 15 16 17 18 19 20 21 22 23 24 25 26 27 28 29 30 31 32 33 34 35 36 37 38 39 40 41 42 43 44 45 46 47 48 49 50
000
ASUS46 KSGX 301110
RWRSGX

SAN DIEGO HOURLY WEATHER ROUNDUP
NATIONAL WEATHER SERVICE SAN DIEGO CA
400 AM PDT WED JUL 30 2014

NOTE: "FAIR" INDICATES FEW OR NO CLOUDS BELOW 12,000 FEET WITH NO
SIGNIFICANT WEATHER AND/OR OBSTRUCTIONS TO VISIBILITY.

CAZ042-043-060-061-PZZ750-775-301200-

GREATER SAN DIEGO AREA

CITY           SKY/WX    TMP DP  RH WIND       PRES   REMARKS
LINDBERGH FLD  MOCLDY    71  66  84 NW5       29.95F
POINT LOMA       N/A     68  66  93 NW9         N/A
NATIONAL CITY    N/A     71  67  87 CALM      29.95S
CHULA VISTA      N/A     69  67  93 CALM      29.88S
IMPERIAL BEACH PTCLDY    65  64  97 CALM      29.95S
BROWN FIELD    CLOUDY    68  66  93 CALM      29.95F FOG
MIRAMAR MCAS   MOCLDY    68  65  90 N5        29.95F
MONTGOMERY FLD MOCLDY    70  66  87 N3        29.95F

$$

NORTH SAN DIEGO COUNTY

CITY           SKY/WX    TMP DP  RH WIND       PRES   REMARKS
CAMP PENDLETON CLEAR     63  58  83 CALM      29.94S
OCEANSIDE AP   MOCLDY    65  61  87 CALM      29.94S
VISTA            N/A     65  60  86 CALM      29.92S
CARLSBAD       CLOUDY    69  66  90 CALM      29.94S
DEL MAR          N/A     68  67  96 CALM      29.96F
LA JOLLA SCRIP   N/A     68  67  95 NW2       29.92F
FALLBROOK        N/A     65  65  99 CALM      29.95S
ESCONDIDO        N/A     69  63  81 CALM      29.95S
SAN MARCOS       N/A     67  61  83 CALM      29.92S
POWAY            N/A     66  59  79 CALM      29.95S
R. PENASQUITOS   N/A     67  65  91 CALM      29.94F

$$

EAST SAN DIEGO COUNTY

CITY           SKY/WX    TMP DP  RH WIND       PRES   REMARKS
RAMONA         CLEAR     64  48  56 CALM      29.98S
SANTEE LAKES     N/A     66  58  75 CALM      29.95S
GILLESPIE FLD  FAIR      70  59  68 CALM      29.97S
LA MESA          N/A     69  65  87 CALM      29.88S
JAMUL            N/A     65  58  76 CALM      29.91S
DESCANSO N       N/A     67  44  43 CALM      29.81S
MT. LAGUNA OBS   N/A     68  40  35 NW2       29.81S
CAMPO            N/A     62  44  51 N3        30.01S

$$

ORANGE COUNTY AND THE LOS ANGELES BASIN

CITY           SKY/WX    TMP DP  RH WIND       PRES   REMARKS
JOHN WAYNE AP  PTCLDY    71  65  81 CALM      29.93F
LAGUNA BEACH     N/A     65  63  91 N1        29.90S
LAKE FOREST FR   N/A     66  54  64 CALM      29.82F
SANTA ANA        N/A     68  64  86 CALM      29.89S
HUNTINGTON BCH   N/A     66  64  95 CALM      29.95F
LOS ALAMITOS   FAIR      67  65  93 CALM      29.93F
FULLERTON      CLEAR     70  64  81 E3        29.92F
LONG BEACH     PTCLDY    70  63  78 CALM      29.93F
L.A. AP        MOCLDY    69  61  75 CALM      29.94F
L.A. DOWNTOWN  PTCLDY    68  63  84 CALM      29.93F

$$

THE INLAND EMPIRE

CITY           SKY/WX    TMP DP  RH WIND       PRES   REMARKS
CORONA         CLEAR     63  57  80 CALM      29.95F
CHINO          CLEAR     66  57  72 CALM      29.96F
ONTARIO        PTCLDY    72  57  59 S5        29.95F
RIVERSIDE AP   CLEAR     71  56  58 CALM      29.96S
RIV CYN CREST    N/A     71  61  70 CALM      29.94S
MORENO VALLEY    N/A     71  55  56 CALM        N/A
MARCH ARB      CLEAR     69  51  52 NW3       29.98S
HORSETHIEF CYN   N/A     68  49  50 CALM      29.94S
PERRIS           N/A     72  54  53 N1        29.95S
MENIFEE          N/A     71  58  65 CALM      30.03S
HEMET EAST       N/A     72  44  36 CALM      29.92S
FRENCH VALLEY  FAIR      66  54  63 CALM      29.97F
TEMECULA         N/A     68  58  70 CALM      29.94S

$$

SAN BERNARDINO AND RIVERSIDE COUNTY MOUNTAINS

CITY           SKY/WX    TMP DP  RH WIND       PRES   REMARKS
BIG BEAR AP    CLEAR     50  43  76 CALM      30.34S
BIG BEAR SHEA    N/A     53  17  24 CALM      29.78F
ANGELUS OAKS     N/A     64  42  44 MISG      29.82F
PINE COVE        N/A     67  44  42 N3        29.91F

$$

SOUTHERN DESERT INCLUDING THE COACHELLA VALLEY

CITY           SKY/WX    TMP DP  RH WIND       PRES   REMARKS
PALM SPRINGS   CLEAR     89  53  29 CALM      29.84S
THOUSAND PALMS   N/A     91  49  23 NW10      29.78S
THERMAL        CLEAR     92  50  23 NW12      29.76F
BLYTHE           N/A    N/A N/A N/A MISG      29.80S
IMPERIAL AP    CLEAR     84  50  30 W6        29.78S
EL CENTRO NAS  CLEAR     85  47  26 W6        29.78S
YUMA AZ        CLEAR     89  55  31 S3        29.80S

$$

UPPER DESERT

CITY           SKY/WX    TMP DP  RH WIND       PRES   REMARKS
VICTORVILLE AP CLEAR     75  45  33 SW6       30.05S
HESPERIA         N/A     73  50  44 CALM      29.99S
APPLE VALLEY     N/A     69  51  53 CALM      30.12S
GRAY BUTTE AP  NOT AVBL
PALMDALE       PTCLDY    82  44  26 W7        30.03S
LANCASTER      PTCLDY    81  45  28 W14       30.00S
EDWARDS AFB    PTCLDY    78  45  31 S8        29.99R
DAGGETT        CLEAR     82  45  27 W7        29.96R
29 PALMS N     CLEAR     85  44  23 W6        30.03S
NEEDLES        CLEAR     91  56  30 W7        29.83S

$$

REGIONAL REPORTS

CITY           SKY/WX    TMP DP  RH WIND       PRES   REMARKS
SANTA BARBARA  PTCLDY    66  60  81 CALM      29.92S
SANDBERG       MOCLDY    76  43  30 VRB7      30.18F
MT. WILSON       N/A     68  39  34 MISG        N/A
LAS VEGAS NV   PTCLDY    86  56  35 S6        29.92R
PHOENIX AZ     PTCLDY    95  55  26 NW6       29.84S
TIJUANA        PTCLDY    68  64  88 NW3       29.98S
ENSENADA NW      N/A     68  32  26 E6        29.91F

$$

OFFSHORE ISLANDS

CITY           SKY/WX    TMP DP  RH WIND       PRES   REMARKS
CATALINA ARPT  MOCLDY    72  46  39 SW7       30.00S
SAN NICOLAS IS CLOUDY   N/A N/A N/A W20       29.95F

$$

MARINE AND OFFSHORE BUOY REPORTS

STATION/POSITION SKY/WX   TEMP    WIND        PRES    SWELL
                          AIR SEA DIR/SP/G            HT/PER/DIR
                          (F)     (DEG/KT/KT) (MB)    (FT/S/D)
TANNER BANKS               66 67  310/ 10/ 12 1014.6R   5/150/10
S CLEMENTE BASIN           69 72  280/ 12/ 14 1013.9F   2/210/14
SAN NICOLAS IS.               67                N/A     2/150/11
SO. S. ROSA ISLA           65 67  310/ 19/ 25 1013.2F   3/11
W. S. BARBARA CH           60 61  320/ 19/ 23 1013.1F   2/290/ 9
M. S. BARBARA CH           63 64  280/ 10/ 12 1013.3
S. MONICA BASIN            66 67   CALM  /  2 1013.5R   3/260/ 6
S PEDRO CHANNEL               68                N/A     2/170/11
DANA POINT                    69                N/A     2/170/11
CMP PENDLETON NS              70                N/A     2/210/13
OCEANSIDE OFFSHR              72                N/A     2/200/14
TORREY PINES OTR              73                N/A     2/200/13
LA JOLLA 1                 70 72  340/  3/  3 1013.9F
MISSION BAY BUOY              72                N/A     2/210/18
SAN DIEGO BAY                 74              1014.4F
POINT LOMA SOUTH              72                N/A     2/180/13

$$




USA.gov is the U.S. government's official web portal to all federal, state and local government web resources and services.